Weather History for Ephrata, WA

Change the Weather History Date:

Tuesday, October 22, 2013

  Actual Average Record
Temperature  
Mean Temperature 55 °F 48 °F  
Max Temperature 71 °F 59 °F 74 °F (2003)
Min Temperature 39 °F 36 °F 24 °F (1984)
Degree Days  
Heating Degree Days 10 17  
Month to date heating degree days 300 276  
Since 1 July heating degree days 408 403  
Cooling Degree Days 0 0  
Month to date cooling degree days 0 0  
Year to date cooling degree days 1084 769  
Growing Degree Days 4 (Base 50)    
Moisture  
Dew Point 39 °F    
Average Humidity 59    
Maximum Humidity 85    
Minimum Humidity 33    
Precipitation  
Precipitation 0.00 in 0.02 in 0.39 in (1966)
Month to date precipitation T 0.32  
Year to date precipitation 4.97 5.34  
Sea Level Pressure  
Sea Level Pressure 30.14 in    
Wind  
Wind Speed 5 mph (North)    
Max Wind Speed 10 mph    
Max Gust Speed 12 mph    
Visibility 10 miles    
Events      
T = Trace of Precipitation, MM = Missing Value Source: NWS Daily Summary

Daily Weather History Graph

Daily Weather History Graph

Search for Another Location

Airport:

Trip Planner

Search our weather history database for the weather conditions in past years. The results will help you decide how hot, cold, wet, or windy it might be!

Date:

Astronomy

Oct. 22, 2013 Rise Set
Actual Time 7:27 AM PDT 5:57 PM PDT
Civil Twilight 6:55 AM PDT 6:28 PM PDT
Nautical Twilight 6:20 AM PDT 7:03 PM PDT
Astronomical Twilight 5:44 AM PDT 7:39 PM PDT
Moon 8:30 PM PDT (10/22) 11:10 AM PDT (10/22)
Length of Visible Light 11h 32m
Length of Day
10h 29m
Waning Gibbous, 86% of the Moon is Illuminated
Oct 22
Waning Gibbous
Oct 26
Last Quarter
Nov 3
New
Nov 9
First Quarter
Nov 17
Full

Hourly Weather History & Observations

Time (PDT) Temp. Windchill Dew Point Humidity Pressure Visibility Wind Dir Wind Speed Gust Speed Precip Events Conditions
12:53 AM 43.0 °F 40.3 °F 36.0 °F 76% 30.17 in 10.0 mi North 4.6 mph - N/A   Clear
1:53 AM 42.1 °F 39.2 °F 36.0 °F 79% 30.17 in 10.0 mi North 4.6 mph - N/A   Clear
2:53 AM 41.0 °F 38.0 °F 36.0 °F 82% 30.17 in 10.0 mi North 4.6 mph - N/A   Clear
3:53 AM 43.0 °F 39.5 °F 37.9 °F 82% 30.17 in 10.0 mi North 5.8 mph - N/A   Clear
4:53 AM 43.0 °F 40.3 °F 37.9 °F 82% 30.17 in 10.0 mi NNW 4.6 mph - N/A   Clear
5:53 AM 39.9 °F 36.7 °F 36.0 °F 86% 30.18 in 10.0 mi North 4.6 mph - N/A   Clear
6:53 AM 39.9 °F 36.7 °F 35.1 °F 83% 30.19 in 10.0 mi NNW 4.6 mph - N/A   Clear
7:53 AM 39.9 °F 34.5 °F 36.0 °F 86% 30.20 in 10.0 mi NNE 8.1 mph - N/A   Clear
8:53 AM 48.0 °F - 42.1 °F 80% 30.21 in 10.0 mi North 6.9 mph - N/A   Clear
9:53 AM 54.0 °F - 41.0 °F 62% 30.20 in 10.0 mi NNE 8.1 mph - N/A   Clear
10:53 AM 57.9 °F - 41.0 °F 53% 30.19 in 10.0 mi North 8.1 mph - N/A   Clear
11:53 AM 61.0 °F - 42.1 °F 50% 30.18 in 10.0 mi NNE 5.8 mph - N/A   Clear
12:53 PM 64.0 °F - 41.0 °F 43% 30.16 in 10.0 mi ENE 5.8 mph - N/A   Clear
1:53 PM 66.9 °F - 39.9 °F 37% 30.13 in 10.0 mi Calm Calm - N/A   Clear
2:53 PM 69.1 °F - 39.9 °F 35% 30.11 in 10.0 mi Calm Calm - N/A   Clear
3:53 PM 70.0 °F - 39.9 °F 33% 30.10 in 10.0 mi Calm Calm - N/A   Clear
4:53 PM 68.0 °F - 41.0 °F 37% 30.08 in 10.0 mi West 5.8 mph - N/A   Clear
5:53 PM 62.1 °F - 43.0 °F 50% 30.08 in 10.0 mi WSW 5.8 mph - N/A   Clear
6:53 PM 55.0 °F - 41.0 °F 59% 30.09 in 10.0 mi Calm Calm - N/A   Clear
7:53 PM 57.9 °F - 39.9 °F 51% 30.09 in 10.0 mi WNW 3.5 mph - N/A   Clear
8:53 PM 54.0 °F - 39.0 °F 57% 30.09 in 10.0 mi Calm Calm - N/A   Clear
9:53 PM 51.1 °F - 39.0 °F 63% 30.09 in 10.0 mi North 10.4 mph - N/A   Clear
10:53 PM 46.9 °F - 37.9 °F 71% 30.10 in 10.0 mi North 8.1 mph - N/A   Clear
11:53 PM 46.9 °F - 37.9 °F 71% 30.11 in 10.0 mi North 6.9 mph - N/A   Clear